This is the latest recevied weather packets stored in our database for station/object W3EJE-13. If no packets are shown the sender has not sent any weather packets the latest 10 day(s).
| Time | Temp. | Humidity | Pressure | Rain* | Wind** | Luminosity | Snow |
|---|---|---|---|---|---|---|---|
| 1777821209 | 7.22° C | 58% | 1018.5 hPa | 0 mm | - | 736 W/m² | - |
| 1777820905 | 7.22° C | 58% | 1018.3 hPa | 0 mm | - | 750 W/m² | - |
| 1777820601 | 7.22° C | 60% | 1018.5 hPa | 0 mm | - | 769 W/m² | - |
| 1777820298 | 6.67° C | 59% | 1018.6 hPa | 0 mm | - | 759 W/m² | - |
| 1777819996 | 6.67° C | 61% | 1018.5 hPa | 0 mm | - | 806 W/m² | - |
| 1777819693 | 7.22° C | 61% | 1018.6 hPa | 0 mm | - | 758 W/m² | - |
| 1777819392 | 6.67° C | 60% | 1018.4 hPa | 0 mm | - | 763 W/m² | - |
| 1777819088 | 6.67° C | 63% | 1018.4 hPa | 0 mm | - | 757 W/m² | - |
| 1777818785 | 6.11° C | 61% | 1018.7 hPa | 0 mm | - | 94 W/m² | - |
| 1777818481 | 6.11° C | 63% | 1018.5 hPa | 0 mm | - | 178 W/m² | - |
| 1777818178 | 5° C | 65% | 1018.7 hPa | 0 mm | - | 691 W/m² | - |
| 1777817874 | 6.11° C | 67% | 1018.4 hPa | 0 mm | - | 111 W/m² | - |
| 1777817572 | 5.56° C | 68% | 1018.4 hPa | 0 mm | - | 117 W/m² | - |
| 1777817268 | 5° C | 67% | 1018.6 hPa | 0 mm | - | 124 W/m² | - |
| 1777816966 | 5° C | 68% | 1018.2 hPa | 0 mm | - | 148 W/m² | - |
| 1777816662 | 5° C | 72% | 1018.5 hPa | 0 mm | - | 111 W/m² | - |
| 1777816359 | 5° C | 72% | 1018.5 hPa | 0 mm | - | 121 W/m² | - |
| 1777816057 | 5° C | 73% | 1018.5 hPa | 0 mm | - | 167 W/m² | - |
| 1777815754 | 5° C | 76% | 1018.4 hPa | 0 mm | - | 151 W/m² | - |
| 1777815452 | 4.44° C | 74% | 1018.5 hPa | 0 mm | - | 135 W/m² | - |
| 1777815149 | 4.44° C | 76% | 1018.3 hPa | 0 mm | - | 108 W/m² | - |
| 1777814845 | 4.44° C | 76% | 1018.4 hPa | 0 mm | - | 113 W/m² | - |
| 1777814541 | 4.44° C | 77% | 1018.4 hPa | 0 mm | - | 101 W/m² | - |
| 1777814239 | 4.44° C | 77% | 1018.5 hPa | 0 mm | - | 82 W/m² | - |
| 1777813935 | 3.89° C | 77% | 1018.5 hPa | 0 mm | - | 49 W/m² | - |
* Rain latest hour (hover to see other rain measurements)
** Current wind speed in m/s (hover to see current wind gust speed)